SHT15L EGJB-EGLL

Flight info

Callsign SHT15L
Flight time 0h 34m
Altitude 19000
Route ORIST1F ORIST L982 ROXOG ROXOG1H
Aircraft A319/M-SDE3FGIJ1KRWXY/LB1

Departure

Time 2026-04-25 13:57
Airport Guernsey Airport (EGJB)

Arrival

Time 2026-04-25 14:32
Airport London Heathrow Airport (EGLL)
Time Latitude Longitude Altitude Speed Heading
2026-04-25 13:25 49.43255 -2.59684 328 ft 0 kts 178°
2026-04-25 13:46 49.43269 -2.59685 325 ft 4 kts 176°
2026-04-25 13:46 49.43296 -2.59687 328 ft 4 kts 178°
2026-04-25 13:46 49.43323 -2.59686 328 ft 4 kts 192°
2026-04-25 13:46 49.43344 -2.59674 324 ft 4 kts 215°
2026-04-25 13:47 49.43359 -2.59645 327 ft 4 kts 257°
2026-04-25 13:47 49.43362 -2.59616 327 ft 0 kts 267°
2026-04-25 13:51 49.43360 -2.59671 324 ft 9 kts 267°
2026-04-25 13:51 49.43347 -2.59790 326 ft 13 kts 264°
2026-04-25 13:51 49.43341 -2.59984 315 ft 23 kts 267°
2026-04-25 13:51 49.43335 -2.60182 301 ft 16 kts 267°
2026-04-25 13:52 49.43330 -2.60399 293 ft 23 kts 267°
2026-04-25 13:52 49.43333 -2.60654 296 ft 24 kts 280°
2026-04-25 13:52 49.43361 -2.60905 307 ft 22 kts 280°
2026-04-25 13:52 49.43360 -2.61122 312 ft 9 kts 267°
2026-04-25 13:53 49.43359 -2.61226 313 ft 10 kts 277°
2026-04-25 13:53 49.43361 -2.61237 313 ft 0 kts 281°
2026-04-25 13:54 49.43362 -2.61244 313 ft 3 kts 283°
2026-04-25 13:55 49.43376 -2.61283 314 ft 4 kts 311°
2026-04-25 13:55 49.43395 -2.61313 315 ft 4 kts 313°
2026-04-25 13:55 49.43414 -2.61342 316 ft 4 kts 320°
2026-04-25 13:55 49.43450 -2.61351 316 ft 7 kts 18°
2026-04-25 13:56 49.43466 -2.61280 315 ft 0 kts 87°
2026-04-25 13:56 49.43467 -2.61273 315 ft 2 kts 86°
2026-04-25 13:56 49.43470 -2.61177 314 ft 37 kts 87°
2026-04-25 13:56 49.43492 -2.60346 311 ft 116 kts 88°
2026-04-25 13:57 49.43526 -2.58900 735 ft 139 kts 88°
2026-04-25 13:57 49.43546 -2.57916 1214 ft 142 kts 87°
2026-04-25 13:57 49.43600 -2.55691 1846 ft 174 kts 88°
2026-04-25 13:57 49.43664 -2.53697 2227 ft 202 kts 87°
2026-04-25 13:58 49.43770 -2.51420 2906 ft 216 kts 81°
2026-04-25 13:58 49.44401 -2.49311 3688 ft 226 kts 46°
2026-04-25 13:58 49.45719 -2.48113 3950 ft 224 kts 16°
2026-04-25 13:58 49.47221 -2.47485 4096 ft 223 kts 12°
2026-04-25 13:59 49.48744 -2.46960 4856 ft 227 kts 10°
2026-04-25 13:59 49.50384 -2.46420 5367 ft 255 kts 11°
2026-04-25 13:59 49.52187 -2.45821 6143 ft 270 kts 11°
2026-04-25 13:59 49.54033 -2.45177 7167 ft 275 kts 12°
2026-04-25 14:00 49.55273 -2.44726 7833 ft 278 kts 12°
2026-04-25 14:00 49.57809 -2.43760 9188 ft 284 kts 13°
2026-04-25 14:00 49.59740 -2.43015 10172 ft 289 kts 13°
2026-04-25 14:00 49.61706 -2.42258 11061 ft 293 kts 12°
2026-04-25 14:01 49.63708 -2.41491 11956 ft 298 kts 12°
2026-04-25 14:01 49.65736 -2.40715 12841 ft 302 kts 12°
2026-04-25 14:01 49.67764 -2.39927 13715 ft 307 kts 14°
2026-04-25 14:01 49.69751 -2.38643 14511 ft 314 kts 28°
2026-04-25 14:02 49.71542 -2.36606 15067 ft 330 kts 42°
2026-04-25 14:02 49.73124 -2.33866 15298 ft 354 kts 49°
2026-04-25 14:02 49.74743 -2.30892 15757 ft 366 kts 49°
2026-04-25 14:02 49.75297 -2.29872 15973 ft 368 kts 49°
2026-04-25 14:03 49.78061 -2.24795 17157 ft 375 kts 48°
2026-04-25 14:03 49.79755 -2.21691 17889 ft 379 kts 48°
2026-04-25 14:03 49.81467 -2.18566 18598 ft 383 kts 48°
2026-04-25 14:03 49.83202 -2.15406 19026 ft 386 kts 48°
2026-04-25 14:04 49.84939 -2.12233 19160 ft 387 kts 48°
2026-04-25 14:04 49.86688 -2.09030 19196 ft 389 kts 48°
2026-04-25 14:04 49.88435 -2.05827 19198 ft 390 kts 48°
2026-04-25 14:04 49.90188 -2.02605 19199 ft 390 kts 48°
2026-04-25 14:05 49.91938 -1.99386 19196 ft 390 kts 48°
2026-04-25 14:05 49.93690 -1.96165 19201 ft 391 kts 48°
2026-04-25 14:05 49.95443 -1.92942 19213 ft 391 kts 48°
2026-04-25 14:05 49.97195 -1.89711 19204 ft 391 kts 48°
2026-04-25 14:06 49.98995 -1.86541 19201 ft 390 kts 43°
2026-04-25 14:06 50.01080 -1.83873 19204 ft 387 kts 32°
2026-04-25 14:06 50.03415 -1.81806 19211 ft 386 kts 25°
2026-04-25 14:06 50.05778 -1.79940 19210 ft 386 kts 25°
2026-04-25 14:07 50.08178 -1.78044 19208 ft 386 kts 25°
2026-04-25 14:07 50.10574 -1.76148 19207 ft 386 kts 25°
2026-04-25 14:07 50.12885 -1.74000 19206 ft 389 kts 34°
2026-04-25 14:07 50.14995 -1.71335 19209 ft 390 kts 38°
2026-04-25 14:08 50.17078 -1.68629 19213 ft 390 kts 38°
2026-04-25 14:08 50.19168 -1.65916 19216 ft 390 kts 38°
2026-04-25 14:08 50.21256 -1.63208 19218 ft 390 kts 38°
2026-04-25 14:08 50.23343 -1.60502 19221 ft 390 kts 38°
2026-04-25 14:09 50.25467 -1.57876 19221 ft 389 kts 32°
2026-04-25 14:09 50.27820 -1.55818 19220 ft 386 kts 21°
2026-04-25 14:09 50.30309 -1.54445 19220 ft 384 kts 15°
2026-04-25 14:09 50.31175 -1.54026 19219 ft 384 kts 15°
2026-04-25 14:10 50.35418 -1.51955 19218 ft 384 kts 15°
2026-04-25 14:10 50.37970 -1.50703 19218 ft 384 kts 15°
2026-04-25 14:10 50.40521 -1.49449 19218 ft 384 kts 15°
2026-04-25 14:10 50.43076 -1.48194 19224 ft 384 kts 15°
2026-04-25 14:11 50.45623 -1.46940 19223 ft 384 kts 15°
2026-04-25 14:11 50.48166 -1.45684 19222 ft 383 kts 15°
2026-04-25 14:11 50.50715 -1.44426 19218 ft 383 kts 15°
2026-04-25 14:11 50.53255 -1.43129 19215 ft 384 kts 19°
2026-04-25 14:12 50.55671 -1.41298 19220 ft 386 kts 27°
2026-04-25 14:12 50.58026 -1.39269 19219 ft 386 kts 26°
2026-04-25 14:12 50.60380 -1.37245 19213 ft 386 kts 26°
2026-04-25 14:12 50.62739 -1.35219 19212 ft 386 kts 26°
2026-04-25 14:13 50.65093 -1.33196 19211 ft 386 kts 26°
2026-04-25 14:13 50.67452 -1.31165 19210 ft 386 kts 26°
2026-04-25 14:13 50.69804 -1.29138 19208 ft 386 kts 26°
2026-04-25 14:13 50.72161 -1.27107 19208 ft 386 kts 26°
2026-04-25 14:14 50.74490 -1.25104 19209 ft 386 kts 26°
2026-04-25 14:14 50.76844 -1.23050 19209 ft 386 kts 28°
2026-04-25 14:14 50.79136 -1.20858 19216 ft 386 kts 30°
2026-04-25 14:14 50.81389 -1.18535 19220 ft 386 kts 31°
2026-04-25 14:15 50.83610 -1.16165 19221 ft 385 kts 32°
2026-04-25 14:15 50.84360 -1.15360 19221 ft 385 kts 32°
2026-04-25 14:15 50.88055 -1.11428 19229 ft 385 kts 31°
2026-04-25 14:15 50.90287 -1.09086 19227 ft 385 kts 31°
2026-04-25 14:16 50.92521 -1.06759 19224 ft 384 kts 31°
2026-04-25 14:16 50.94761 -1.04433 19223 ft 384 kts 31°
2026-04-25 14:16 50.97001 -1.02112 19220 ft 384 kts 31°
2026-04-25 14:16 50.99236 -0.99795 19174 ft 383 kts 31°
2026-04-25 14:17 51.01312 -0.97121 18495 ft 388 kts 44°
2026-04-25 14:17 51.03123 -0.93919 17778 ft 389 kts 47°
2026-04-25 14:17 51.04911 -0.90724 17144 ft 386 kts 47°
2026-04-25 14:17 51.06691 -0.87538 16507 ft 382 kts 47°
2026-04-25 14:18 51.08449 -0.84393 15891 ft 378 kts 47°
2026-04-25 14:18 51.10167 -0.81316 15295 ft 375 kts 47°
2026-04-25 14:18 51.11882 -0.78245 14861 ft 363 kts 47°
2026-04-25 14:18 51.13508 -0.75329 14739 ft 341 kts 47°
2026-04-25 14:19 51.15043 -0.72576 14538 ft 326 kts 47°
2026-04-25 14:19 51.16534 -0.69906 14108 ft 320 kts 46°
2026-04-25 14:19 51.18011 -0.67268 13570 ft 317 kts 46°
2026-04-25 14:19 51.19472 -0.64655 13058 ft 314 kts 47°
2026-04-25 14:20 51.20914 -0.62064 12529 ft 311 kts 47°
2026-04-25 14:20 51.21379 -0.61228 12360 ft 310 kts 47°
2026-04-25 14:20 51.23752 -0.56952 11515 ft 305 kts 47°
2026-04-25 14:20 51.25157 -0.54420 11019 ft 302 kts 47°
2026-04-25 14:21 51.26524 -0.51953 10549 ft 299 kts 47°
2026-04-25 14:21 51.27882 -0.49494 10316 ft 288 kts 47°
2026-04-25 14:21 51.29173 -0.47155 10198 ft 274 kts 47°
2026-04-25 14:21 51.30314 -0.44781 9993 ft 265 kts 60°
2026-04-25 14:22 51.31025 -0.42065 9432 ft 270 kts 68°
2026-04-25 14:22 51.31759 -0.39275 9004 ft 269 kts 66°
2026-04-25 14:22 51.32273 -0.36439 8667 ft 265 kts 83°
2026-04-25 14:22 51.32415 -0.33517 8295 ft 263 kts 86°
2026-04-25 14:23 51.32517 -0.30608 7905 ft 261 kts 86°
2026-04-25 14:23 51.32611 -0.27745 7662 ft 253 kts 86°
2026-04-25 14:23 51.32700 -0.24964 7391 ft 248 kts 86°
2026-04-25 14:23 51.32786 -0.22223 7043 ft 246 kts 86°
2026-04-25 14:24 51.32870 -0.19501 6678 ft 244 kts 86°
2026-04-25 14:24 51.32951 -0.16800 6306 ft 242 kts 86°
2026-04-25 14:24 51.33068 -0.15036 6047 ft 240 kts 75°
2026-04-25 14:24 51.33873 -0.12803 5777 ft 228 kts 40°
2026-04-25 14:25 51.35711 -0.11626 5608 ft 210 kts
2026-04-25 14:25 51.37134 -0.11468 5474 ft 200 kts
2026-04-25 14:25 51.38497 -0.11368 5310 ft 193 kts
2026-04-25 14:25 51.38951 -0.11336 5225 ft 193 kts
2026-04-25 14:26 51.40738 -0.11213 4832 ft 191 kts
2026-04-25 14:26 51.42067 -0.11122 4540 ft 191 kts
2026-04-25 14:26 51.43378 -0.11040 4250 ft 190 kts
2026-04-25 14:26 51.44666 -0.11388 3948 ft 188 kts 336°
2026-04-25 14:27 51.45726 -0.12577 3823 ft 186 kts 311°
2026-04-25 14:27 51.46372 -0.14312 3597 ft 179 kts 288°
2026-04-25 14:27 51.46532 -0.16246 3387 ft 172 kts 269°
2026-04-25 14:27 51.46530 -0.18135 3191 ft 169 kts 270°
2026-04-25 14:28 51.46530 -0.20020 2970 ft 167 kts 270°
2026-04-25 14:28 51.46530 -0.21885 2748 ft 167 kts 270°
2026-04-25 14:28 51.46528 -0.23742 2524 ft 166 kts 270°
2026-04-25 14:28 51.46526 -0.25560 2305 ft 165 kts 270°
2026-04-25 14:29 51.46524 -0.27404 2086 ft 165 kts 270°
2026-04-25 14:29 51.46522 -0.29244 1866 ft 164 kts 270°
2026-04-25 14:29 51.46519 -0.31075 1641 ft 164 kts 270°
2026-04-25 14:29 51.46516 -0.32903 1432 ft 166 kts 270°
2026-04-25 14:30 51.46513 -0.34650 1203 ft 146 kts 270°
2026-04-25 14:30 51.46507 -0.37658 839 ft 129 kts 270°
2026-04-25 14:30 51.46503 -0.39093 668 ft 128 kts 269°
2026-04-25 14:31 51.46495 -0.40515 489 ft 127 kts 269°
2026-04-25 14:31 51.46495 -0.41928 317 ft 127 kts 270°
2026-04-25 14:31 51.46491 -0.43338 144 ft 126 kts 269°
2026-04-25 14:31 51.46492 -0.44649 89 ft 100 kts 269°
2026-04-25 14:32 51.46488 -0.45482 86 ft 40 kts 270°
2026-04-25 14:32 51.46504 -0.45777 89 ft 23 kts 300°
2026-04-25 14:32 51.46601 -0.45901 87 ft 5 kts 326°
2026-04-25 14:32 51.46631 -0.45934 86 ft 7 kts 325°
2026-04-25 14:33 51.46661 -0.46019 89 ft 11 kts 272°
2026-04-25 14:33 51.46660 -0.46159 88 ft 14 kts 269°
2026-04-25 14:33 51.46659 -0.46337 90 ft 18 kts 269°
2026-04-25 14:33 51.46659 -0.46553 89 ft 21 kts 269°
2026-04-25 14:34 51.46657 -0.46807 87 ft 25 kts 269°
2026-04-25 14:34 51.46656 -0.47101 86 ft 28 kts 270°
2026-04-25 14:34 51.46656 -0.47311 86 ft 17 kts 270°
2026-04-25 14:34 51.46655 -0.47518 86 ft 21 kts 269°
2026-04-25 14:35 51.46654 -0.47766 86 ft 24 kts 270°
2026-04-25 14:35 51.46654 -0.48026 86 ft 18 kts 269°
2026-04-25 14:35 51.46652 -0.48251 87 ft 22 kts 269°
2026-04-25 14:35 51.46661 -0.48448 88 ft 15 kts 304°
2026-04-25 14:36 51.46775 -0.48469 86 ft 18 kts 360°
2026-04-25 14:36 51.46915 -0.48471 86 ft 22 kts 359°
2026-04-25 14:36 51.47077 -0.48472 87 ft 25 kts 359°
2026-04-25 14:36 51.47260 -0.48473 86 ft 28 kts 359°
2026-04-25 14:37 51.47415 -0.48475 86 ft 11 kts 359°
2026-04-25 14:37 51.47448 -0.48475 86 ft 6 kts 359°
2026-04-25 14:37 51.47488 -0.48530 87 ft 10 kts 277°
2026-04-25 14:37 51.47487 -0.48657 86 ft 13 kts 269°
2026-04-25 14:38 51.47463 -0.48762 89 ft 10 kts 189°
2026-04-25 14:38 51.47405 -0.48757 86 ft 1 kts 179°
2026-04-25 14:38 51.47399 -0.48757 86 ft 1 kts 180°
2026-04-25 14:38 51.47398 -0.48757 86 ft 0 kts 180°